| time (UTC) | temp C | wind direction | speed KPH | gust KPH | rain 1hr cm | rain 24hr cm | rain mn cm | humidity % | barometer mb |
| 20260505005603 | 18 | 0 | 0.0 | 0.0 | 0.00 | 0.00 | 0.00 | 62 | 1012.6 |
| 20260505005203 | 18 | 0 | 0.0 | 0.0 | 0.00 | 0.00 | 0.00 | 64 | 1012.6 |
| 20260505004803 | 19 | 0 | 0.0 | 0.0 | 0.00 | 0.00 | 0.00 | 65 | 1012.6 |
| 20260505004403 | 19 | 0 | 0.0 | 0.0 | 0.00 | 0.00 | 0.00 | 70 | 1012.5 |
| 20260505004003 | 19 | 0 | 0.0 | 0.0 | 0.00 | 0.00 | 0.00 | 69 | 1012.6 |
| 20260505003603 | 20 | 0 | 0.0 | 0.0 | 0.00 | 0.00 | 0.00 | 70 | 1012.5 |
| 20260505003203 | 20 | 0 | 0.0 | 0.0 | 0.00 | 0.00 | 0.00 | 67 | 1012.5 |
| 20260505002803 | 20 | 0 | 0.0 | 0.0 | 0.00 | 0.00 | 0.00 | 66 | 1012.5 |
| 20260505002424 | 21 | 0 | 0.0 | 0.0 | 0.00 | 0.00 | 0.00 | 67 | 1012.4 |
| 20260505002024 | 21 | 0 | 0.0 | 0.0 | 0.00 | 0.00 | 0.00 | 59 | 1012.3 |
| 20260505001603 | 21 | 86 | 0.0 | 1.6 | 0.00 | 0.00 | 0.00 | 55 | 1012.3 |
| 20260505001203 | 22 | 86 | 0.0 | 1.6 | 0.00 | 0.00 | 0.00 | 51 | 1012.3 |
| 20260505000803 | 22 | 86 | 0.0 | 1.6 | 0.00 | 0.00 | 0.00 | 51 | 1012.3 |
| 20260505000405 | 22 | 86 | 0.0 | 1.6 | 0.00 | 0.00 | 0.00 | 48 | 1012.3 |
| 20260505000004 | 22 | 86 | 0.0 | 1.6 | 0.00 | 0.00 | 0.00 | 47 | 1012.5 |
| 20260504235603 | 22 | 86 | 0.0 | 3.2 | 0.00 | 0.00 | 0.00 | 48 | 1012.5 |
| 20260504235203 | 22 | 95 | 1.6 | 3.2 | 0.00 | 0.00 | 0.00 | 47 | 1012.4 |
| 20260504234824 | 22 | 108 | 1.6 | 3.2 | 0.00 | 0.00 | 0.00 | 47 | 1012.4 |
| 20260504234403 | 23 | 147 | 1.6 | 3.2 | 0.00 | 0.00 | 0.00 | 45 | 1012.4 |
| 20260504234003 | 23 | 165 | 1.6 | 6.4 | 0.00 | 0.00 | 0.00 | 46 | 1012.5 |
| 20260504233603 | 23 | 189 | 1.6 | 6.4 | 0.00 | 0.00 | 0.00 | 46 | 1012.5 |
| 20260504233203 | 23 | 206 | 1.6 | 12.9 | 0.00 | 0.00 | 0.00 | 45 | 1012.6 |
| 20260504232803 | 23 | 221 | 1.6 | 12.9 | 0.00 | 0.00 | 0.00 | 43 | 1012.6 |
| 20260504232403 | 23 | 251 | 1.6 | 12.9 | 0.00 | 0.00 | 0.00 | 44 | 1012.6 |
| 20260504232003 | 23 | 240 | 1.6 | 6.4 | 0.00 | 0.00 | 0.00 | 44 | 1012.7 |
| 20260504231603 | 23 | 242 | 1.6 | 9.7 | 0.00 | 0.00 | 0.00 | 46 | 1012.6 |
| 20260504231203 | 23 | 228 | 1.6 | 9.7 | 0.00 | 0.00 | 0.00 | 49 | 1012.6 |
| 20260504230803 | 23 | 237 | 1.6 | 6.4 | 0.00 | 0.00 | 0.00 | 46 | 1012.6 |
| 20260504230424 | 23 | 243 | 1.6 | 6.4 | 0.00 | 0.00 | 0.00 | 46 | 1012.6 |
| 20260504230003 | 23 | 255 | 1.6 | 6.4 | 0.00 | 0.00 | 0.00 | 44 | 1012.6 |
| 20260504225603 | 24 | 213 | 1.6 | 6.4 | 0.00 | 0.00 | 0.00 | 42 | 1012.7 |
| 20260504225224 | 24 | 214 | 1.6 | 6.4 | 0.00 | 0.00 | 0.00 | 43 | 1012.7 |
| 20260504224803 | 23 | 276 | 1.6 | 9.7 | 0.00 | 0.00 | 0.00 | 43 | 1012.8 |
| 20260504224403 | 23 | 289 | 1.6 | 9.7 | 0.00 | 0.00 | 0.00 | 45 | 1012.8 |
| 20260504224024 | 24 | 258 | 1.6 | 9.7 | 0.00 | 0.00 | 0.00 | 48 | 1012.8 |
| 20260504223603 | 24 | 263 | 1.6 | 6.4 | 0.00 | 0.00 | 0.00 | 42 | 1012.8 |
| 20260504223203 | 24 | 273 | 1.6 | 9.7 | 0.00 | 0.00 | 0.00 | 42 | 1012.8 |
| 20260504222803 | 24 | 270 | 1.6 | 9.7 | 0.00 | 0.00 | 0.00 | 42 | 1012.8 |
| 20260504222403 | 24 | 258 | 1.6 | 9.7 | 0.00 | 0.00 | 0.00 | 43 | 1012.9 |
| 20260504222003 | 24 | 190 | 1.6 | 6.4 | 0.00 | 0.00 | 0.00 | 40 | 1012.9 |
| 20260504221603 | 24 | 179 | 3.2 | 6.4 | 0.00 | 0.00 | 0.00 | 42 | 1012.8 |
| 20260504221224 | 24 | 199 | 3.2 | 6.4 | 0.00 | 0.00 | 0.00 | 41 | 1012.9 |
| 20260504220824 | 24 | 233 | 3.2 | 8.0 | 0.00 | 0.00 | 0.00 | 42 | 1013.0 |
| 20260504220403 | 25 | 204 | 3.2 | 8.0 | 0.00 | 0.00 | 0.00 | 41 | 1013.0 |
| 20260504220003 | 24 | 166 | 3.2 | 8.0 | 0.00 | 0.00 | 0.00 | 43 | 1013.0 |
| 20260504215624 | 25 | 145 | 3.2 | 6.4 | 0.00 | 0.00 | 0.00 | 42 | 1012.9 |
| 20260504215203 | 25 | 168 | 3.2 | 6.4 | 0.00 | 0.00 | 0.00 | 39 | 1012.9 |
| 20260504214803 | 25 | 188 | 3.2 | 6.4 | 0.00 | 0.00 | 0.00 | 43 | 1012.9 |
| 20260504214403 | 25 | 168 | 1.6 | 6.4 | 0.00 | 0.00 | 0.00 | 41 | 1013.1 |
| 20260504214003 | 25 | 170 | 3.2 | 6.4 | 0.00 | 0.00 | 0.00 | 37 | 1013.1 |
| 20260504213624 | 25 | 170 | 1.6 | 6.4 | 0.00 | 0.00 | 0.00 | 41 | 1013.1 |
| 20260504213203 | 25 | 190 | 1.6 | 4.8 | 0.00 | 0.00 | 0.00 | 45 | 1013.1 |
| 20260504212803 | 25 | 137 | 1.6 | 6.4 | 0.00 | 0.00 | 0.00 | 42 | 1013.1 |
| 20260504212403 | 25 | 126 | 1.6 | 8.0 | 0.00 | 0.00 | 0.00 | 40 | 1013.1 |
| 20260504212003 | 25 | 150 | 3.2 | 12.9 | 0.00 | 0.00 | 0.00 | 38 | 1013.2 |
| 20260504211603 | 25 | 163 | 3.2 | 12.9 | 0.00 | 0.00 | 0.00 | 38 | 1013.2 |
| 20260504211203 | 25 | 184 | 3.2 | 12.9 | 0.00 | 0.00 | 0.00 | 38 | 1013.1 |
| 20260504210803 | 25 | 176 | 3.2 | 12.9 | 0.00 | 0.00 | 0.00 | 43 | 1013.1 |
| 20260504210403 | 25 | 188 | 3.2 | 9.7 | 0.00 | 0.00 | 0.00 | 42 | 1013.1 |
| 20260504210004 | 25 | 179 | 3.2 | 9.7 | 0.00 | 0.00 | 0.00 | 43 | 1013.1 |
| 20260504205603 | 26 | 144 | 3.2 | 9.7 | 0.00 | 0.00 | 0.00 | 40 | 1013.2 |
| 20260504205203 | 25 | 116 | 1.6 | 9.7 | 0.00 | 0.00 | 0.00 | 39 | 1013.3 |
| 20260504204803 | 25 | 105 | 1.6 | 4.8 | 0.00 | 0.00 | 0.00 | 45 | 1013.3 |
| 20260504204403 | 26 | 130 | 1.6 | 4.8 | 0.00 | 0.00 | 0.00 | 40 | 1013.3 |
| 20260504204003 | 26 | 155 | 1.6 | 6.4 | 0.00 | 0.00 | 0.00 | 37 | 1013.2 |
| 20260504203603 | 26 | 161 | 1.6 | 8.0 | 0.00 | 0.00 | 0.00 | 39 | 1013.3 |
| 20260504203203 | 25 | 147 | 3.2 | 12.9 | 0.00 | 0.00 | 0.00 | 42 | 1013.3 |
| 20260504202803 | 25 | 178 | 4.8 | 12.9 | 0.00 | 0.00 | 0.00 | 43 | 1013.4 |
| 20260504202403 | 25 | 242 | 3.2 | 12.9 | 0.00 | 0.00 | 0.00 | 42 | 1013.4 |
| 20260504202003 | 25 | 278 | 3.2 | 6.4 | 0.00 | 0.00 | 0.00 | 49 | 1013.5 |
| 20260504201603 | 25 | 260 | 3.2 | 6.4 | 0.00 | 0.00 | 0.00 | 46 | 1013.5 |
| 20260504201203 | 25 | 231 | 1.6 | 6.4 | 0.00 | 0.00 | 0.00 | 44 | 1013.6 |
| 20260504200824 | 25 | 187 | 1.6 | 6.4 | 0.00 | 0.00 | 0.00 | 45 | 1013.6 |
| 20260504200403 | 25 | 224 | 3.2 | 17.7 | 0.00 | 0.00 | 0.00 | 38 | 1013.5 |
| 20260504200004 | 25 | 216 | 3.2 | 17.7 | 0.00 | 0.00 | 0.00 | 40 | 1013.6 |
| 20260504195624 | 26 | 200 | 3.2 | 17.7 | 0.00 | 0.00 | 0.00 | 41 | 1013.6 |
| 20260504195203 | 26 | 169 | 3.2 | 12.9 | 0.00 | 0.00 | 0.00 | 38 | 1013.7 |
| 20260504194803 | 26 | 171 | 3.2 | 12.9 | 0.00 | 0.00 | 0.00 | 38 | 1013.9 |
| 20260504194403 | 26 | 163 | 3.2 | 12.9 | 0.00 | 0.00 | 0.00 | 40 | 1013.9 |
| 20260504194003 | 26 | 148 | 3.2 | 6.4 | 0.00 | 0.00 | 0.00 | 40 | 1014.0 |
| 20260504193603 | 26 | 129 | 3.2 | 8.0 | 0.00 | 0.00 | 0.00 | 40 | 1014.0 |
| 20260504193203 | 25 | 163 | 3.2 | 8.0 | 0.00 | 0.00 | 0.00 | 40 | 1014.1 |
| 20260504192824 | 26 | 229 | 3.2 | 8.0 | 0.00 | 0.00 | 0.00 | 41 | 1014.2 |
| 20260504192403 | 26 | 302 | 3.2 | 6.4 | 0.00 | 0.00 | 0.00 | 38 | 1014.1 |
| 20260504192003 | 25 | 96 | 3.2 | 6.4 | 0.00 | 0.00 | 0.00 | 40 | 1014.2 |
| 20260504191603 | 26 | 114 | 3.2 | 8.0 | 0.00 | 0.00 | 0.00 | 36 | 1014.2 |
| 20260504191203 | 26 | 132 | 3.2 | 8.0 | 0.00 | 0.00 | 0.00 | 37 | 1014.3 |
| 20260504190803 | 25 | 356 | 1.6 | 4.8 | 0.00 | 0.00 | 0.00 | 45 | 1014.4 |
| 20260504190424 | 25 | 296 | 1.6 | 6.4 | 0.00 | 0.00 | 0.00 | 42 | 1014.4 |
| 20260504190003 | 25 | 231 | 3.2 | 6.4 | 0.00 | 0.00 | 0.00 | 38 | 1014.4 |
| 20260504185603 | 25 | 215 | 3.2 | 6.4 | 0.00 | 0.00 | 0.00 | 44 | 1014.6 |
| 20260504185203 | 25 | 181 | 3.2 | 8.0 | 0.00 | 0.00 | 0.00 | 42 | 1014.6 |
| 20260504184803 | 25 | 174 | 3.2 | 8.0 | 0.00 | 0.00 | 0.00 | 44 | 1014.8 |
| 20260504184403 | 25 | 205 | 3.2 | 8.0 | 0.00 | 0.00 | 0.00 | 38 | 1014.8 |
| 20260504184003 | 25 | 311 | 3.2 | 8.0 | 0.00 | 0.00 | 0.00 | 44 | 1014.9 |
| 20260504183603 | 25 | 303 | 1.6 | 8.0 | 0.00 | 0.00 | 0.00 | 45 | 1015.0 |
| 20260504183203 | 25 | 186 | 1.6 | 4.8 | 0.00 | 0.00 | 0.00 | 44 | 1015.0 |
| 20260504182803 | 25 | 251 | 1.6 | 9.7 | 0.00 | 0.00 | 0.00 | 44 | 1015.0 |
| 20260504182403 | 25 | 236 | 3.2 | 9.7 | 0.00 | 0.00 | 0.00 | 43 | 1015.1 |
| 20260504182003 | 25 | 189 | 3.2 | 9.7 | 0.00 | 0.00 | 0.00 | 45 | 1015.2 |
| 20260504181603 | 25 | 186 | 1.6 | 6.4 | 0.00 | 0.00 | 0.00 | 43 | 1015.2 |
| 20260504181203 | 25 | 267 | 1.6 | 6.4 | 0.00 | 0.00 | 0.00 | 42 | 1015.2 |
| 20260504180803 | 25 | 318 | 1.6 | 4.8 | 0.00 | 0.00 | 0.00 | 47 | 1015.2 |
| 20260504180403 | 25 | 318 | 1.6 | 4.8 | 0.00 | 0.00 | 0.00 | 50 | 1015.3 |
| 20260504180003 | 25 | 304 | 1.6 | 4.8 | 0.00 | 0.00 | 0.00 | 49 | 1015.3 |
| 20260504175624 | 25 | 302 | 3.2 | 6.4 | 0.00 | 0.00 | 0.00 | 42 | 1015.4 |
| 20260504175203 | 25 | 292 | 1.6 | 6.4 | 0.00 | 0.00 | 0.00 | 43 | 1015.5 |
| 20260504174803 | 25 | 289 | 1.6 | 6.4 | 0.00 | 0.00 | 0.00 | 48 | 1015.6 |
| 20260504174403 | 24 | 304 | 1.6 | 4.8 | 0.00 | 0.00 | 0.00 | 45 | 1015.6 |
| 20260504174003 | 24 | 81 | 1.6 | 4.8 | 0.00 | 0.00 | 0.00 | 45 | 1015.7 |
| 20260504173603 | 24 | 88 | 1.6 | 6.4 | 0.00 | 0.00 | 0.00 | 48 | 1015.7 |
| 20260504173204 | 24 | 261 | 1.6 | 6.4 | 0.00 | 0.00 | 0.00 | 48 | 1015.7 |
| 20260504172803 | 24 | 256 | 3.2 | 6.4 | 0.00 | 0.00 | 0.00 | 44 | 1015.7 |
| 20260504172424 | 24 | 257 | 3.2 | 6.4 | 0.00 | 0.00 | 0.00 | 47 | 1015.8 |
| 20260504172003 | 24 | 187 | 1.6 | 6.4 | 0.00 | 0.00 | 0.00 | 51 | 1015.9 |
| 20260504171603 | 25 | 169 | 1.6 | 6.4 | 0.00 | 0.00 | 0.00 | 44 | 1015.9 |
| 20260504171203 | 24 | 174 | 1.6 | 6.4 | 0.00 | 0.00 | 0.00 | 44 | 1016.0 |
| 20260504170824 | 24 | 150 | 1.6 | 4.8 | 0.00 | 0.00 | 0.00 | 47 | 1016.1 |
| 20260504170403 | 23 | 136 | 1.6 | 12.9 | 0.00 | 0.00 | 0.00 | 50 | 1016.1 |
| 20260504160403 | 23 | 288 | 3.2 | 9.7 | 0.00 | 0.00 | 0.00 | 53 | 1016.9 |
| 20260504150803 | 20 | 275 | 1.6 | 4.8 | 0.00 | 0.00 | 0.00 | 61 | 1017.1 |
| 20260504150424 | 20 | 243 | 1.6 | 4.8 | 0.00 | 0.00 | 0.00 | 65 | 1017.1 |
| 20260504141203 | 16 | 0 | 0.0 | 0.0 | 0.00 | 0.00 | 0.00 | 78 | 1017.3 |
| 20260504140803 | 15 | 0 | 0.0 | 0.0 | 0.00 | 0.00 | 0.00 | 74 | 1017.4 |
| 20260504140403 | 15 | 0 | 0.0 | 0.0 | 0.00 | 0.00 | 0.00 | 77 | 1017.5 |
| 20260504130803 | 11 | 0 | 0.0 | 0.0 | 0.00 | 0.00 | 0.00 | 92 | 1017.7 |
| 20260504130403 | 10 | 0 | 0.0 | 0.0 | 0.00 | 0.00 | 0.00 | 92 | 1017.7 |
| 20260504110424 | 6 | 0 | 0.0 | 0.0 | 0.00 | 0.00 | 0.00 | 93 | 1017.1 |
| 20260504100403 | 7 | 0 | 0.0 | 0.0 | 0.00 | 0.00 | 0.00 | 93 | 1017.0 |
| 20260504081603 | 7 | 0 | 0.0 | 0.0 | 0.00 | 0.00 | 0.00 | 93 | 1016.8 |
| 20260504081203 | 7 | 0 | 0.0 | 0.0 | 0.00 | 0.00 | 0.00 | 93 | 1016.8 |
| 20260504080803 | 7 | 0 | 0.0 | 0.0 | 0.00 | 0.00 | 0.00 | 93 | 1016.9 |
| 20260504080403 | 7 | 0 | 0.0 | 0.0 | 0.00 | 0.00 | 0.00 | 93 | 1016.9 |
| 20260504070403 | 8 | 0 | 0.0 | 0.0 | 0.00 | 0.00 | 0.00 | 93 | 1017.2 |
| 20260504050424 | 9 | 0 | 0.0 | 0.0 | 0.00 | 0.00 | 0.00 | 92 | 1017.9 |
| 20260504050003 | 10 | 0 | 0.0 | 0.0 | 0.00 | 0.00 | 0.00 | 92 | 1017.9 |
| 20260504045603 | 10 | 0 | 0.0 | 0.0 | 0.00 | 0.00 | 0.00 | 92 | 1018.0 |
| 20260504045203 | 10 | 0 | 0.0 | 0.0 | 0.00 | 0.00 | 0.00 | 92 | 1018.0 |
| 20260504044803 | 10 | 0 | 0.0 | 0.0 | 0.00 | 0.00 | 0.00 | 92 | 1018.0 |
| 20260504044403 | 10 | 0 | 0.0 | 0.0 | 0.00 | 0.00 | 0.00 | 92 | 1018.0 |
| 20260504044003 | 10 | 0 | 0.0 | 0.0 | 0.00 | 0.00 | 0.00 | 92 | 1018.0 |
| 20260504043603 | 10 | 0 | 0.0 | 0.0 | 0.00 | 0.00 | 0.00 | 92 | 1018.1 |
| 20260504043203 | 10 | 0 | 0.0 | 0.0 | 0.00 | 0.00 | 0.00 | 91 | 1018.2 |
| 20260504042803 | 10 | 0 | 0.0 | 0.0 | 0.00 | 0.00 | 0.00 | 92 | 1018.2 |
| 20260504042403 | 10 | 0 | 0.0 | 0.0 | 0.00 | 0.00 | 0.00 | 91 | 1018.2 |
| 20260504042003 | 10 | 0 | 0.0 | 0.0 | 0.00 | 0.00 | 0.00 | 92 | 1018.2 |
| 20260504041603 | 10 | 0 | 0.0 | 0.0 | 0.00 | 0.00 | 0.00 | 91 | 1018.1 |
| 20260504041203 | 10 | 0 | 0.0 | 0.0 | 0.00 | 0.00 | 0.00 | 91 | 1018.1 |
| 20260504040803 | 10 | 0 | 0.0 | 0.0 | 0.00 | 0.00 | 0.00 | 91 | 1018.1 |
| 20260504040403 | 10 | 0 | 0.0 | 0.0 | 0.00 | 0.00 | 0.00 | 91 | 1018.1 |
| 20260504040003 | 10 | 0 | 0.0 | 0.0 | 0.00 | 0.00 | 0.00 | 91 | 1018.1 |
| 20260504035624 | 10 | 0 | 0.0 | 0.0 | 0.00 | 0.00 | 0.00 | 91 | 1018.1 |
| 20260504035224 | 10 | 0 | 0.0 | 0.0 | 0.00 | 0.00 | 0.00 | 91 | 1018.3 |
| 20260504034803 | 10 | 0 | 0.0 | 0.0 | 0.00 | 0.00 | 0.00 | 91 | 1018.3 |
| 20260504034403 | 10 | 0 | 0.0 | 0.0 | 0.00 | 0.00 | 0.00 | 91 | 1018.4 |
| 20260504034003 | 10 | 0 | 0.0 | 0.0 | 0.00 | 0.00 | 0.00 | 91 | 1018.4 |
| 20260504033603 | 11 | 0 | 0.0 | 0.0 | 0.00 | 0.00 | 0.00 | 91 | 1018.4 |
| 20260504033203 | 11 | 0 | 0.0 | 0.0 | 0.00 | 0.00 | 0.00 | 91 | 1018.4 |
| 20260504032803 | 11 | 0 | 0.0 | 0.0 | 0.00 | 0.00 | 0.00 | 91 | 1018.5 |
| 20260504032403 | 11 | 0 | 0.0 | 0.0 | 0.00 | 0.00 | 0.00 | 91 | 1018.6 |
| 20260504032003 | 11 | 0 | 0.0 | 0.0 | 0.00 | 0.00 | 0.00 | 91 | 1018.5 |
| 20260504031624 | 11 | 0 | 0.0 | 0.0 | 0.00 | 0.00 | 0.00 | 91 | 1018.5 |
| 20260504031203 | 11 | 0 | 0.0 | 0.0 | 0.00 | 0.00 | 0.00 | 91 | 1018.4 |
| 20260504030803 | 11 | 0 | 0.0 | 0.0 | 0.00 | 0.00 | 0.00 | 91 | 1018.5 |
| 20260504030403 | 11 | 0 | 0.0 | 0.0 | 0.00 | 0.00 | 0.00 | 91 | 1018.4 |
| 20260504030003 | 11 | 0 | 0.0 | 0.0 | 0.00 | 0.00 | 0.00 | 90 | 1018.4 |
| 20260504025603 | 11 | 0 | 0.0 | 0.0 | 0.00 | 0.00 | 0.00 | 91 | 1018.3 |
| 20260504025203 | 11 | 0 | 0.0 | 0.0 | 0.00 | 0.00 | 0.00 | 90 | 1018.3 |
| 20260504024803 | 11 | 0 | 0.0 | 0.0 | 0.00 | 0.00 | 0.00 | 89 | 1018.3 |
| 20260504024403 | 11 | 0 | 0.0 | 0.0 | 0.00 | 0.00 | 0.00 | 89 | 1018.2 |
| 20260504024003 | 11 | 0 | 0.0 | 0.0 | 0.00 | 0.00 | 0.00 | 89 | 1018.3 |
| 20260504023624 | 11 | 0 | 0.0 | 0.0 | 0.00 | 0.00 | 0.00 | 89 | 1018.3 |
| 20260504023203 | 11 | 0 | 0.0 | 0.0 | 0.00 | 0.00 | 0.00 | 88 | 1018.1 |
| 20260504022803 | 12 | 0 | 0.0 | 0.0 | 0.00 | 0.00 | 0.00 | 88 | 1018.1 |
| 20260504022403 | 12 | 0 | 0.0 | 0.0 | 0.00 | 0.00 | 0.00 | 89 | 1018.1 |
| 20260504022003 | 12 | 0 | 0.0 | 0.0 | 0.00 | 0.00 | 0.00 | 88 | 1018.0 |
| 20260504021603 | 12 | 0 | 0.0 | 0.0 | 0.00 | 0.00 | 0.00 | 87 | 1017.9 |
| 20260504021203 | 12 | 0 | 0.0 | 0.0 | 0.00 | 0.00 | 0.00 | 87 | 1017.9 |
| 20260504020803 | 12 | 0 | 0.0 | 0.0 | 0.00 | 0.00 | 0.00 | 86 | 1017.9 |
| 20260504020403 | 12 | 0 | 0.0 | 0.0 | 0.00 | 0.00 | 0.00 | 86 | 1017.9 |
| 20260504020003 | 12 | 0 | 0.0 | 0.0 | 0.00 | 0.00 | 0.00 | 86 | 1017.8 |
| 20260504015603 | 12 | 0 | 0.0 | 0.0 | 0.00 | 0.00 | 0.00 | 85 | 1017.9 |
| 20260504015203 | 12 | 0 | 0.0 | 0.0 | 0.00 | 0.00 | 0.00 | 84 | 1017.8 |
| 20260504014803 | 12 | 0 | 0.0 | 0.0 | 0.00 | 0.00 | 0.00 | 84 | 1017.9 |
| 20260504014403 | 13 | 0 | 0.0 | 0.0 | 0.00 | 0.00 | 0.00 | 84 | 1017.9 |
| 20260504014003 | 13 | 0 | 0.0 | 0.0 | 0.00 | 0.00 | 0.00 | 83 | 1017.8 |
| 20260504013603 | 13 | 0 | 0.0 | 0.0 | 0.00 | 0.00 | 0.00 | 83 | 1017.7 |
| 20260504013203 | 13 | 0 | 0.0 | 0.0 | 0.00 | 0.00 | 0.00 | 82 | 1017.6 |
| 20260504012803 | 13 | 0 | 0.0 | 0.0 | 0.00 | 0.00 | 0.00 | 81 | 1017.5 |
| 20260504012403 | 13 | 0 | 0.0 | 0.0 | 0.00 | 0.00 | 0.00 | 81 | 1017.4 |
| 20260504012003 | 13 | 0 | 0.0 | 0.0 | 0.00 | 0.00 | 0.00 | 80 | 1017.5 |
| 20260504011603 | 13 | 0 | 0.0 | 0.0 | 0.00 | 0.00 | 0.00 | 80 | 1017.5 |
| 20260504011203 | 14 | 0 | 0.0 | 0.0 | 0.00 | 0.00 | 0.00 | 78 | 1017.5 |
| 20260504010803 | 14 | 0 | 0.0 | 0.0 | 0.00 | 0.00 | 0.00 | 77 | 1017.4 |
| 20260504010403 | 14 | 0 | 0.0 | 0.0 | 0.00 | 0.00 | 0.00 | 77 | 1017.4 |
| 20260504010003 | 15 | 0 | 0.0 | 0.0 | 0.00 | 0.00 | 0.00 | 76 | 1017.4 |